Location: ?????
(44.4284°N, 135.2222°E)
Time: 09:35:50
(UTC+00:00)

DELTA 2 R/B (1) - Pass Details

Date: 17 January 2026
Orbit: 786 x 800 km, 39.6° (Epoch: 10 February)

Event Time Altitude Azimuth Distance (km) Brightness Sun altitude
Rises 10:32:42 0° 251° (WSW) 3,279 7.8 -29.0°
Reaches altitude 10° 10:35:15 10° 246° (WSW) 2,349 6.8 -29.5°
Enters shadow 10:39:28 43° 208° (SSW) 1,097 4.4 -30.2°
